GFSCGP_250_spd_072.txt.gz
Wind_Speed
29 32 37 39 43 54 70 88 99 102 104 112 109 103 96 105 110 107 108 108 105 104 106 110 101 101 111 112 105 105 112 117 112 108 112 110 108 104 94 92 93 90 87 87
28 38 37 39 45 52 62 73 85 97 107 116 112 111 104 106 108 107 107 108 106 107 107 103 101 99 102 99 99 101 102 106 115 111 112 114 114 110 104 97 96 89 84 83
40 34 38 40 44 51 58 69 77 82 93 106 114 118 112 112 111 110 106 106 106 108 109 106 102 100 101 94 93 99 100 101 103 105 107 109 113 114 106 98 96 93 85 85
50 43 38 42 47 54 54 63 68 70 77 84 100 107 111 117 112 110 109 111 111 111 110 106 100 98 98 97 96 97 98 99 101 101 102 102 105 106 104 103 100 98 98 90
54 53 45 43 51 55 47 53 59 60 66 72 80 92 94 109 112 113 113 113 113 116 113 108 101 101 98 98 98 98 97 98 98 100 101 100 99 98 100 99 98 102 95 96
55 59 53 47 54 53 44 41 45 46 53 55 67 86 80 91 100 107 112 116 117 113 110 109 107 105 102 99 98 98 100 99 100 100 99 98 96 95 96 99 99 95 95 94
58 62 60 55 55 58 42 35 38 43 47 42 61 72 68 81 89 95 101 106 111 111 111 110 107 105 104 102 101 101 102 102 102 101 100 98 96 93 92 93 92 95 96 95
64 64 67 61 64 59 46 37 39 39 48 48 52 49 61 75 80 80 84 95 100 100 103 108 109 108 107 104 103 104 104 102 103 103 101 98 96 94 93 92 90 89 91 93
69 70 75 62 67 58 45 43 38 36 45 47 43 47 49 57 65 76 77 83 91 95 96 97 104 111 108 106 105 105 105 105 105 104 102 100 98 96 94 94 92 91 90 91
74 73 79 67 69 56 42 43 41 39 38 38 42 51 55 56 56 64 70 75 80 88 93 93 95 97 101 101 103 104 105 105 107 108 107 105 102 101 100 99 96 94 91 90
74 75 81 68 68 52 42 43 40 38 36 37 39 45 54 52 53 55 64 70 72 80 84 87 86 84 84 88 92 94 95 99 105 109 108 106 104 104 103 101 100 97 94 90
74 78 82 68 65 47 41 41 39 34 36 36 35 39 48 53 53 53 60 65 69 73 79 82 83 85 86 86 87 90 89 89 92 96 101 104 105 105 104 102 102 99 97 95
75 80 81 72 65 46 39 37 32 32 34 35 36 40 52 46 46 51 57 61 65 66 70 75 78 82 83 85 85 82 83 83 83 85 89 93 97 99 100 102 102 100 99 97
78 83 81 73 66 50 40 33 28 29 31 29 30 35 41 38 37 48 54 58 62 62 61 60 67 73 84 89 87 83 81 80 81 83 84 85 87 89 91 93 95 97 98 98
80 84 81 73 66 49 37 31 26 26 28 26 31 33 34 38 40 43 49 52 54 57 59 57 54 53 70 81 81 81 82 82 81 80 78 78 80 82 84 88 90 91 94 96
80 86 79 74 65 50 36 29 25 21 20 24 29 26 27 31 37 36 38 45 49 51 54 54 54 54 56 60 71 74 78 80 80 79 77 77 78 80 81 81 83 86 89 91
79 88 75 73 62 49 38 28 20 15 11 13 18 21 20 20 23 28 31 33 36 44 49 50 50 49 47 44 48 54 69 75 76 77 79 81 81 80 80 78 78 81 83 86
80 87 72 73 57 46 38 29 17 11 12 8 9 13 15 16 14 16 18 21 24 28 34 40 45 46 39 38 40 45 53 60 71 82 84 82 82 83 81 80 79 80 80 81
79 81 71 71 54 40 33 26 17 9 3 6 8 10 12 13 12 11 10 12 18 23 27 31 35 38 41 40 42 47 54 60 67 74 82 84 83 85 84 79 81 75 76 79
77 71 69 64 49 34 25 18 12 11 11 8 11 10 7 7 5 7 15 16 18 17 18 21 27 30 33 38 40 40 45 57 62 69 73 75 72 66 60 66 73 72 76 75
78 64 68 56 41 27 20 10 19 23 25 20 18 18 20 18 18 20 22 23 21 20 18 20 21 23 28 30 30 31 35 37 49 56 60 58 55 55 56 57 61 58 65 71
72 64 65 46 29 16 14 24 21 22 23 23 25 24 22 20 21 22 25 28 31 30 24 17 15 19 22 24 24 26 29 34 35 38 39 43 48 49 49 47 46 45 46 53
61 62 56 33 10 13 16 23 27 25 25 25 26 27 30 31 33 36 36 33 30 25 21 18 13 12 13 16 18 20 21 22 25 29 33 35 36 36 37 37 37 37 38 41
56 59 43 15 9 18 24 27 27 25 23 29 38 38 34 34 38 40 37 32 30 31 28 23 18 13 9 7 8 12 16 18 19 21 23 24 27 29 29 30 32 34 34 35
54 51 25 2 17 28 26 27 24 21 30 36 44 36 28 39 37 36 34 28 32 32 30 29 27 20 14 8 3 2 6 10 14 17 19 23 23 23 24 26 27 27 26 29
52 37 8 11 28 27 27 24 19 26 28 31 32 33 40 35 36 40 31 33 32 33 37 40 38 31 25 19 16 13 14 12 9 8 10 12 15 17 18 18 20 22 25 28

GFSCGP_250_spd_075.txt.gz
Wind_Speed
18 16 26 41 45 50 57 70 82 91 99 102 104 102 99 105 109 109 110 111 109 109 108 110 106 107 114 120 129 128 127 125 117 106 113 115 109 109 100 99 88 98 88 85
28 28 27 22 31 48 53 56 59 66 79 92 95 106 106 111 112 112 110 111 111 111 111 111 110 109 107 106 117 122 128 120 120 123 115 114 105 107 100 96 91 87 101 97
34 33 38 37 33 33 47 55 59 65 74 78 91 101 106 113 113 119 116 115 114 115 118 118 114 110 107 102 101 109 124 120 117 117 123 108 108 100 95 108 96 96 101 98
39 39 40 46 46 41 37 49 53 57 67 80 96 94 93 95 108 120 119 120 121 119 117 115 113 109 104 101 103 103 103 105 108 106 105 105 105 98 89 97 101 100 93 100
44 43 48 47 54 54 48 44 49 57 67 77 79 86 76 91 93 100 112 120 122 121 121 117 111 108 105 106 104 103 102 102 107 108 109 107 105 102 100 105 100 98 100 92
43 47 52 57 61 64 57 49 53 60 61 66 63 75 58 74 84 93 101 106 113 121 121 121 118 115 109 106 103 103 102 103 105 105 103 101 101 101 101 101 99 98 98 90
46 48 53 55 59 67 66 57 58 58 56 51 59 55 42 63 75 84 96 95 95 104 112 116 118 115 111 108 109 109 107 103 103 104 103 101 98 97 96 95 96 96 94 93
49 49 57 60 65 68 72 63 66 57 45 45 50 46 52 57 65 69 76 84 88 94 101 110 112 110 111 112 112 112 111 108 107 108 104 99 97 96 94 94 94 94 91 89
53 52 59 61 68 71 76 65 69 58 43 37 44 50 50 59 60 64 60 67 79 86 91 100 108 113 113 113 113 113 112 112 110 110 108 102 100 99 96 95 94 92 92 91
56 58 63 66 70 76 78 67 68 54 43 35 36 45 53 52 55 64 65 60 64 73 81 90 97 103 104 102 104 109 112 111 108 108 109 106 104 102 100 98 96 93 92 91
60 64 68 70 74 78 77 72 64 49 46 38 33 41 52 54 56 59 65 59 59 64 69 77 84 90 96 97 97 94 94 98 105 108 108 107 104 102 101 100 98 96 94 93
64 65 69 72 78 82 74 72 57 46 42 39 36 38 42 52 51 47 53 56 60 58 60 67 74 81 87 94 96 96 96 95 95 97 101 104 106 105 104 103 102 99 98 94
65 66 70 76 80 86 72 66 50 42 37 38 31 34 39 42 42 46 50 52 56 58 57 60 68 74 79 84 90 95 97 97 98 99 100 101 102 104 104 104 103 101 99 96
67 69 71 74 81 84 71 60 44 34 33 27 29 29 33 36 34 37 42 48 51 52 54 57 55 62 71 77 83 89 91 94 94 92 91 93 93 94 95 96 97 97 98 98
66 69 72 74 81 80 72 55 41 32 25 23 24 20 24 27 30 29 27 34 42 45 47 49 45 45 50 59 72 75 80 88 90 89 87 89 89 85 84 84 85 86 87 88
67 69 73 75 84 74 66 49 34 27 26 24 20 12 13 15 18 20 21 25 34 37 40 42 42 42 43 45 48 59 71 81 81 81 82 84 84 85 84 83 80 79 79 80
67 68 71 77 78 71 60 42 26 22 20 18 17 12 11 9 11 14 18 20 25 30 35 37 38 37 38 38 44 47 58 70 76 83 85 85 85 83 82 80 79 76 76 75
66 67 71 77 71 67 48 31 17 17 14 12 9 6 3 6 6 7 10 13 15 19 26 32 35 35 36 36 38 43 52 60 68 78 85 88 88 87 87 85 82 81 79 77
64 66 71 74 66 55 37 22 11 9 9 10 15 20 19 20 20 21 22 20 19 17 15 16 21 25 30 32 36 38 45 53 62 65 74 83 89 90 92 89 89 87 84 80
62 65 71 66 61 42 26 11 7 15 24 28 30 31 29 30 29 28 27 26 25 22 23 23 23 23 25 30 30 26 32 42 50 60 71 77 81 82 87 91 92 91 86 84
61 64 66 62 46 30 13 10 21 27 30 33 32 29 30 36 38 35 33 34 32 29 25 19 21 24 27 30 28 26 31 33 45 54 63 71 73 71 72 76 80 80 81 82
59 63 57 53 27 13 6 19 26 31 33 32 33 38 38 40 38 37 39 39 36 34 32 29 25 23 27 29 27 29 29 36 37 40 45 55 63 65 62 60 60 56 53 54
56 59 52 38 16 5 17 25 33 34 35 39 41 38 34 32 35 38 38 36 37 38 36 32 28 26 24 23 23 28 32 28 30 33 38 44 48 54 55 52 54 53 48 46
53 47 44 23 3 12 21 33 34 30 34 37 35 36 36 39 41 39 37 38 37 38 40 40 36 29 24 20 17 19 20 21 27 28 29 31 33 36 39 41 44 44 43 42
46 39 36 4 6 13 25 29 30 28 35 39 35 36 38 40 44 41 34 34 33 35 39 40 41 35 29 22 14 12 12 14 17 18 20 21 24 27 30 30 32 33 35 35
36 33 12 8 12 14 22 21 26 38 36 36 36 36 38 41 39 37 34 34 35 36 37 42 43 42 41 35 23 13 9 6 6 7 11 15 17 19 21 22 25 26 26 28

GFSCGP_250_spd_078.txt.gz
Wind_Speed
3 8 8 11 21 33 53 65 73 84 92 96 97 95 98 101 100 98 102 107 110 112 111 114 119 131 129 127 124 128 130 126 132 115 116 118 113 113 108 106 107 103 100 97
10 12 15 16 18 18 19 28 47 62 73 86 89 93 98 102 103 104 104 106 108 108 109 111 112 117 119 126 129 121 121 134 133 129 126 125 110 113 116 110 110 109 108 101
16 18 20 22 24 24 29 31 34 35 49 69 76 69 76 88 104 109 109 111 111 113 113 113 112 114 114 115 117 117 120 124 129 133 135 130 131 119 110 112 106 108 108 105
22 23 26 28 31 29 33 37 40 42 42 47 68 69 72 79 87 95 98 107 117 120 123 122 117 114 111 111 110 111 111 112 115 118 126 125 124 117 112 101 101 93 88 86
28 28 29 33 36 37 40 44 48 47 49 42 49 70 64 78 83 91 102 111 118 122 124 128 125 121 117 114 110 108 109 109 110 113 116 116 111 112 107 105 101 100 93 81
30 32 35 38 42 45 47 51 54 56 59 48 50 65 53 72 98 105 113 114 114 114 113 115 117 120 120 118 115 113 111 110 110 113 115 113 112 109 102 100 100 91 84 79
34 37 39 42 47 50 52 58 61 59 66 61 56 62 62 75 94 98 99 102 105 106 105 106 110 108 110 113 117 119 116 115 114 116 115 113 109 104 103 100 98 96 90 89
38 40 43 45 51 54 54 62 68 67 71 63 63 61 67 66 75 73 78 82 81 87 91 94 99 101 102 104 107 114 119 119 117 115 112 108 104 101 99 98 94 93 93 94
39 41 44 48 53 58 59 66 70 75 79 69 66 60 54 59 56 58 63 64 68 73 75 79 85 92 95 98 102 103 111 117 119 118 115 109 105 102 99 96 94 93 94 96
43 42 47 49 55 61 64 68 72 79 80 74 61 53 46 55 54 57 57 60 63 64 66 67 73 79 85 90 95 98 101 105 111 114 113 107 106 106 102 98 97 95 95 94
47 48 50 53 58 64 68 72 75 81 79 76 62 45 42 51 54 55 55 55 60 64 65 65 64 66 74 80 88 91 94 95 98 101 104 106 107 106 104 101 101 101 98 96
50 51 54 58 64 67 71 75 80 80 77 69 53 44 40 42 49 52 51 54 54 56 60 62 61 63 62 71 79 82 85 89 91 93 96 98 103 104 105 104 103 103 103 101
51 54 56 61 65 70 75 77 82 79 74 59 47 42 38 37 40 40 40 42 41 46 53 55 54 55 61 61 68 77 80 83 88 89 91 96 101 102 104 105 105 105 104 101
53 56 57 62 67 72 78 80 80 79 65 51 38 35 31 32 33 30 29 34 37 42 47 49 51 53 57 61 60 66 73 79 85 87 89 94 98 99 98 100 100 100 101 101
55 58 58 65 70 74 78 82 78 72 53 43 33 27 24 27 28 25 25 29 34 38 42 44 45 46 51 55 60 60 62 69 78 82 83 88 90 93 93 94 94 93 91 91
55 56 60 67 71 75 79 78 76 59 44 29 22 18 18 15 17 17 16 17 21 26 31 32 33 35 41 49 51 54 54 57 63 68 73 76 82 87 88 89 89 85 81 80
52 55 61 68 73 75 77 75 59 40 26 18 13 10 11 10 9 8 7 6 7 11 17 21 24 26 30 34 41 49 52 54 56 59 65 67 73 79 80 84 86 84 81 79
52 54 62 69 70 74 71 61 36 20 12 14 18 21 24 25 26 27 25 20 18 16 14 14 19 24 26 29 33 40 45 50 56 58 62 67 72 74 78 77 79 82 84 82
54 56 61 65 69 68 58 30 13 7 25 26 28 28 31 31 30 33 30 29 26 26 26 26 24 23 26 29 32 35 39 43 49 57 65 71 72 72 74 77 77 82 84 84
51 55 59 63 63 58 24 6 10 16 26 30 35 33 33 38 41 38 41 40 38 35 31 29 31 34 34 33 32 31 35 39 40 50 58 67 72 71 70 74 77 81 84 82
49 52 53 56 52 27 5 6 15 24 33 36 39 42 45 45 44 41 39 40 39 40 40 38 35 32 31 36 38 32 31 35 44 50 56 61 66 69 67 66 69 72 71 72
45 46 50 50 35 10 2 15 19 27 35 41 43 43 42 40 38 35 33 32 35 42 46 45 41 36 34 30 28 30 30 39 42 45 47 51 56 59 63 63 63 59 58 57
40 45 47 44 11 5 13 20 21 35 39 41 39 36 36 35 38 40 37 37 39 39 44 50 49 44 40 33 24 23 31 30 32 33 39 44 47 49 54 59 60 56 52 49
38 41 40 26 6 14 21 20 33 35 36 35 35 35 32 38 37 38 40 43 41 46 52 58 61 56 44 33 24 17 16 19 20 23 27 35 41 44 44 45 49 51 43 38
35 37 31 7 15 16 18 32 35 36 31 30 30 32 34 36 33 33 36 37 39 44 52 55 55 56 52 39 26 15 8 8 10 15 21 27 28 30 32 36 34 36 39 40
32 31 20 9 20 17 27 30 32 30 25 29 30 34 32 30 32 34 34 34 42 45 51 50 54 63 57 50 37 25 16 9 1 6 11 15 19 23 24 26 26 28 29 29

GFSCGP_250_spd_084.txt.gz
Wind_Speed
17 25 32 41 49 56 62 66 67 69 73 76 82 86 87 92 96 100 100 102 103 107 117 123 126 126 132 124 124 118 119 127 120 117 119 122 121 123 121 114 113 113 111 109
14 16 19 21 25 32 43 53 60 65 68 70 76 76 81 86 86 92 95 98 100 99 106 111 115 121 133 129 132 133 130 130 130 128 130 125 127 128 124 114 113 116 117 116
19 22 21 22 24 24 27 29 32 39 44 52 58 62 66 75 81 84 90 96 98 103 104 105 109 113 120 125 129 132 134 134 129 128 132 136 132 131 130 130 129 123 123 120
24 23 24 25 27 28 29 29 32 35 39 43 45 46 56 61 66 71 78 84 83 85 93 100 108 111 115 117 122 125 127 128 130 132 128 125 132 138 143 140 141 136 128 119
27 27 29 30 29 31 32 33 33 35 36 39 44 47 46 54 62 66 72 76 80 80 81 82 85 93 108 117 120 121 123 122 124 128 131 130 128 126 128 130 131 128 127 126
37 36 36 35 35 35 34 37 38 39 41 42 48 49 49 52 59 60 66 72 77 82 85 86 89 90 91 100 111 119 122 124 125 124 123 122 122 121 124 125 126 127 125 124
40 41 41 40 40 40 41 43 43 42 43 46 50 52 58 59 63 68 70 74 78 82 85 88 90 92 93 98 101 104 109 116 121 123 124 125 124 121 121 120 122 124 122 121
44 45 43 43 42 43 44 47 46 46 49 50 54 56 63 65 67 73 77 80 84 87 91 94 96 101 105 102 102 102 104 106 111 115 117 119 121 123 124 124 121 121 121 116
50 49 47 45 44 46 45 50 51 51 52 52 57 63 68 70 76 78 83 85 88 91 95 100 100 98 100 100 103 106 105 105 106 108 110 110 115 115 115 116 123 123 120 118
52 51 51 49 48 49 51 50 54 56 55 57 62 67 72 78 79 84 87 87 88 85 83 82 84 83 85 87 89 95 101 104 104 102 102 105 109 110 106 106 106 110 111 116
56 53 50 49 49 51 52 55 56 57 60 63 65 70 78 79 86 86 81 73 65 63 63 63 63 63 64 66 74 81 87 94 99 99 98 101 102 102 100 101 101 98 95 98
62 57 53 51 52 54 55 56 57 58 63 68 71 73 78 81 83 71 59 53 50 48 45 46 47 47 48 49 57 62 67 72 79 86 91 99 102 103 104 105 104 102 101 99
62 60 59 57 57 55 56 56 56 59 66 72 74 73 75 72 58 49 42 37 34 33 32 31 31 33 35 39 46 50 56 60 64 68 74 78 79 84 89 93 98 102 103 102
65 63 61 60 58 56 57 54 56 62 65 68 73 73 59 43 35 23 18 16 15 16 18 18 19 22 24 28 34 40 45 51 54 59 63 66 65 65 71 74 79 82 84 88
61 63 62 59 56 52 52 52 56 59 63 63 61 40 33 19 11 18 25 29 32 34 35 33 29 22 18 18 24 30 36 42 47 51 55 58 60 63 66 64 63 67 72 76
57 58 56 53 49 47 49 51 54 55 56 52 31 21 6 19 24 30 32 35 38 39 39 40 38 35 32 28 24 20 21 29 40 48 50 53 54 56 59 61 60 59 60 68
47 51 50 49 45 44 46 49 48 50 53 28 9 11 19 23 26 28 32 35 38 42 45 46 47 41 34 32 30 28 26 25 26 35 43 47 52 53 54 57 60 58 58 63
39 40 44 44 40 40 44 42 44 48 25 3 11 15 18 22 26 30 33 35 37 40 43 43 46 46 47 42 34 29 30 33 32 34 37 40 45 49 54 55 58 58 58 57
33 37 39 35 34 37 39 39 39 27 4 13 12 13 17 21 23 26 29 31 31 34 38 42 48 50 53 55 56 46 42 38 37 40 41 44 44 46 49 51 54 57 58 57
31 33 32 31 33 34 36 35 33 5 18 17 16 17 19 20 28 27 28 31 33 38 43 44 44 45 49 55 60 54 51 43 45 44 46 47 47 46 46 49 51 55 55 56
31 32 29 29 31 33 30 31 12 16 21 18 17 16 18 20 21 20 23 29 34 35 39 44 48 49 51 51 49 49 54 51 43 41 40 45 47 47 46 47 48 50 52 54
27 27 27 30 29 27 28 24 19 26 22 21 19 17 15 18 19 23 27 29 29 32 38 46 51 51 53 47 46 50 46 38 34 33 33 34 43 46 47 45 45 46 47 51
24 24 26 25 25 26 26 16 28 30 24 21 21 19 18 15 14 19 24 27 29 33 41 47 50 54 52 43 44 43 34 29 26 26 27 31 33 36 41 40 38 36 39 42
22 20 20 23 24 24 16 29 36 32 25 24 19 15 13 8 13 17 20 27 27 35 42 46 51 54 51 47 46 36 28 24 21 19 18 24 30 31 33 37 32 32 29 32
19 17 19 20 20 11 27 35 36 31 25 21 17 18 7 8 12 15 21 26 28 34 40 46 53 56 55 46 40 35 27 21 17 13 13 17 23 26 28 32 31 31 31 30
19 19 17 16 11 18 35 38 36 32 26 19 15 13 10 12 14 19 22 25 28 33 40 46 53 59 58 54 44 34 27 21 14 10 7 7 10 16 21 23 25 26 28 27

GFSCGP_250_spd_087.txt.gz
Wind_Speed
32 37 43 50 59 65 66 69 76 83 93 94 98 100 103 108 110 113 113 114 117 119 122 122 121 121 122 121 118 122 120 119 116 109 112 116 117 115 114 113 111 104 101 103
19 30 36 42 48 53 59 65 70 72 76 81 85 95 98 101 104 106 107 113 117 117 119 121 122 123 125 122 124 125 131 135 133 131 132 125 120 118 119 120 120 116 118 122
13 15 19 25 33 41 47 52 56 62 67 71 76 77 80 86 90 95 98 103 108 116 121 123 122 124 125 126 126 125 125 126 130 139 140 137 135 133 125 121 122 118 119 119
20 20 22 21 22 24 25 29 37 43 48 55 62 67 76 81 82 84 87 87 90 94 98 103 105 106 108 112 113 114 117 119 120 125 129 130 132 139 133 137 135 137 137 136
28 27 28 30 30 29 30 29 32 33 35 36 40 41 48 51 57 60 60 64 69 74 76 81 87 91 95 100 102 107 110 117 119 121 120 121 122 128 131 133 134 141 140 138
32 36 34 34 32 34 34 34 35 37 38 39 45 44 47 54 54 55 63 63 66 70 72 76 79 83 86 89 93 96 99 104 110 118 122 121 120 118 122 122 125 130 133 132
37 36 39 41 41 40 40 40 40 40 43 45 49 48 54 56 57 60 63 66 69 72 77 82 86 89 90 94 96 96 98 102 106 110 112 114 115 119 122 122 120 120 122 124
45 45 43 37 44 45 46 44 45 44 48 49 54 54 60 59 63 64 68 71 76 80 84 88 93 95 100 103 104 107 107 107 111 114 114 111 105 104 106 113 117 121 128 120
52 49 48 51 51 48 47 46 46 48 48 51 56 60 65 64 65 68 72 78 83 88 91 96 101 104 107 109 111 112 114 117 118 118 118 117 112 103 100 93 92 102 111 115
61 55 54 54 58 56 55 53 51 53 53 55 60 63 68 69 70 72 77 82 88 93 97 100 104 106 105 103 101 100 105 109 114 116 118 117 113 107 96 76 69 69 78 104
61 63 60 58 60 58 57 57 55 57 59 59 60 65 70 70 73 78 84 90 92 96 99 93 82 76 74 73 73 74 76 81 88 94 99 103 102 97 79 52 48 43 101 118
58 60 65 63 64 62 60 58 57 58 60 61 61 63 71 72 77 83 85 90 88 70 61 57 51 49 47 48 51 54 57 63 68 73 76 80 85 83 69 59 56 85 118 117
52 57 63 67 66 64 62 62 61 59 59 61 63 65 73 73 77 79 75 48 32 24 23 18 22 24 27 30 31 34 40 46 52 58 62 65 68 68 66 73 90 98 111 117
47 53 59 65 68 65 65 63 61 58 58 61 66 64 70 70 71 48 22 1 7 12 15 15 14 13 14 12 12 16 21 27 35 41 47 52 58 60 60 67 81 93 107 112
45 50 54 61 67 66 64 64 59 58 61 60 62 63 62 57 24 9 8 6 8 12 19 22 21 17 18 16 15 16 19 21 23 30 36 42 48 53 54 58 66 80 95 101
47 47 50 55 62 66 64 62 58 58 56 54 57 55 48 19 13 12 1 6 14 20 25 28 28 29 31 30 31 31 27 22 21 28 31 35 40 44 49 54 58 64 68 71
43 44 43 47 52 57 59 55 52 49 50 52 48 45 21 17 14 6 4 13 21 27 30 36 39 41 40 41 39 43 43 42 37 32 34 36 37 38 41 48 54 61 62 61
38 39 38 41 41 46 47 46 42 44 48 44 40 23 20 13 6 2 9 13 18 26 33 37 41 44 45 46 48 50 53 52 47 42 40 41 41 40 42 43 47 48 52 50
33 33 33 34 34 36 36 37 36 41 37 34 21 22 16 11 5 1 5 12 19 26 33 38 40 44 47 48 51 51 52 53 54 54 48 44 43 43 45 43 44 46 47 48
29 29 31 31 30 28 30 31 35 31 30 22 20 20 18 9 2 12 16 19 25 29 34 36 42 46 47 51 56 58 58 60 60 56 55 48 43 41 44 44 46 46 45 46
25 27 28 28 29 28 29 31 28 26 26 22 22 23 15 4 6 13 14 21 24 29 32 38 43 48 46 49 53 57 60 55 49 43 41 41 41 40 41 43 47 47 46 49
23 24 26 28 30 30 29 27 23 22 20 23 25 24 13 4 2 9 18 21 22 28 35 39 45 49 48 53 56 58 62 51 41 35 32 31 34 37 38 40 45 47 45 43
22 24 27 29 29 27 25 24 23 21 29 30 28 20 12 3 3 12 16 18 23 29 38 40 45 51 52 54 53 54 55 46 35 31 28 27 28 31 35 35 40 44 42 39
22 25 29 28 24 25 25 26 26 22 32 29 24 17 7 2 7 9 12 19 24 29 39 42 46 51 56 58 53 50 50 41 33 27 25 24 24 27 31 32 36 38 36 34
25 25 25 22 24 24 26 26 23 41 35 31 23 15 7 5 1 3 9 21 22 28 37 42 47 49 57 57 57 49 46 40 30 25 21 17 16 19 22 27 32 35 37 37
27 25 24 23 22 20 18 19 37 41 35 29 22 16 10 5 4 5 9 14 20 30 37 40 45 48 54 58 55 51 43 37 28 23 19 14 10 9 12 14 27 36 38 40